Regional Weather Roundup
Issued by NWS

Home | Current Version | Previous Version | Text Only | Print | Product List | Glossary Off
Versions: 1 2 3 4 5 6 7 8 9 10 11 12 13 14 15 16 17 18 19 20 21 22 23 24 25 26 27 28 29 30 31 32 33 34 35 36 37 38 39 40 41 42 43 44 45 46 47 48 49 50

261
ASUS45 KPSR 201410
RWRAZ

ARIZONA HOURLY REGIONAL WEATHER ROUNDUP
NATIONAL WEATHER SERVICE PHOENIX AZ
700 AM MST WED SEP 20 2017

NOTE: FAIR INDICATES FEW OR NO CLOUDS BELOW 12,000 FEET WITH NO
SIGNIFICANT WEATHER AND/OR OBSTRUCTIONS TO VISIBILITY.

AZZ001>003-036-201500-
NORTHWEST ARIZONA

CITY           SKY/WX    TMP DP  RH WIND       PRES   REMARKS
BULLHEAD CITY  CLEAR     73  43  33 CALM      29.76R
KINGMAN        CLEAR     57  41  55 SE6       29.90R
$$

AZZ004>008-015-016-018-201500-
NORTH CENTRAL ARIZONA

CITY           SKY/WX    TMP DP  RH WIND       PRES   REMARKS
GRAND CANYON   PTCLDY    39  31  72 NE5       30.11R
WILLIAMS       CLEAR     52  30  43 E7        30.11R
PRESCOTT       CLEAR     55  37  50 SE6       30.04R
FLAGSTAFF      CLEAR     42  29  59 CALM      30.15R
PAYSON           N/A     54  30  40 CALM      30.10R
PAGE           CLEAR     63  34  33 CALM      29.93R
$$

AZZ009>014-017-201500-
NORTHEAST ARIZONA

CITY           SKY/WX    TMP DP  RH WIND       PRES   REMARKS
WINSLOW        PTCLDY    54  31  41 S9        30.05R
SAINT JOHNS    PTSUNNY   48  31  51 NW3       30.10R
WINDOW ROCK    MOSUNNY   44  31  60 CALM      30.15R
SHOW LOW       SUNNY     57  30  35 S18G28    30.13R
$$

AZZ540-542>544-546-548-201500-
GREATER PHOENIX AREA

CITY           SKY/WX    TMP DP  RH WIND       PRES   REMARKS
PHOENIX        CLEAR     73  44  35 E6        29.84R
BUCKEYE        CLEAR     75  27  16 E12       29.83R
GLENDALE       CLEAR     72  34  25 VRB5      29.86R
LUKE AFB       CLEAR     68  37  32 NW5       29.85R
SCOTTSDALE     CLEAR     75  41  29 E3        29.88R
MESA-FALCON    CLEAR     79  50  36 E8        29.87R
MESA-GATEWAY   CLEAR     66  45  45 SE6       29.88R
CHANDLER       CLEAR     70  48  46 E12       29.85R
$$

AZZ539-553-201500-
SOUTHWEST MARICOPA COUNTY AND PINAL COUNTY

CITY           SKY/WX    TMP DP  RH WIND       PRES   REMARKS
CASA GRANDE    NOT AVBL
GILA BEND      CLEAR     72  49  44 E5        29.81R
$$

AZZ503-504-507>509-201500-
SOUTHEAST ARIZONA

CITY           SKY/WX    TMP DP  RH WIND       PRES   REMARKS
TUCSON         CLEAR     72  56  57 SE3       29.97R
DAVIS-MONTHAN  CLEAR     69  57  65 E9        29.96R
RYAN FIELD     CLEAR     72  61  68 E7        29.95R
NOGALES        CLEAR     64  59  83 CALM      30.04S
SIERRA VISTA   SUNNY     65  55  70 NE5       30.10R
DOUGLAS        SUNNY     66  57  72 E5        30.08R
SAFFORD        SUNNY     64  38  38 E3        29.98R
$$

AZZ532-201500-
SOUTHWEST ARIZONA

CITY           SKY/WX    TMP DP  RH WIND       PRES   REMARKS
YUMA           CLEAR     76  54  46 NE6       29.76R
$$

CAZ041-043-047-048-061-525>527-560>570-201500-
SOUTHERN CALIFORNIA

CITY           SKY/WX    TMP DP  RH WIND       PRES   REMARKS
DOWNTOWN L.A.  MOCLDY    64  58  80 CALM      29.87R
L.A. AIRPORT   MOCLDY    65  61  87 NE6       29.87R
SAN DIEGO      MOCLDY    69  59  70 S9        29.90R
BURBANK        PTCLDY    61  54  77 CALM      29.88R
ONTARIO        CLOUDY    65  59  81 W6        29.88R
RIVERSIDE      CLOUDY    64  60  87 W5        29.88R
PALM SPRINGS   CLEAR     72  55  55 W5        29.78R
EL CENTRO NAS  CLEAR     66  41  40 S3        29.77R
IMPERIAL       CLEAR     64  45  49 SW3       29.75R
BLYTHE         CLEAR     67  49  52 NW5       29.77R
NEEDLES        CLEAR     76  45  33 CALM      29.78R
$$

NVZ020-UTZ003-201500-
SOUTHERN NEVADA-UTAH

CITY           SKY/WX    TMP DP  RH WIND       PRES   REMARKS
LAS VEGAS      CLEAR     70  41  34 S6        29.80R
SALT LAKE CITY PTCLDY    49  36  61 SE12      29.93S
$$

NMZ009-TXZ055-201500-
NEW MEXICO-WEST TEXAS

CITY           SKY/WX    TMP DP  RH WIND       PRES   REMARKS
ALBUQUERQUE    MOSUNNY   60  38  43 SE5       30.09R
EL PASO        MOSUNNY   78  49  35 W10       30.03R
$$


........................KEY........................
SKY/WX - SKY CONDITION/WEATHER
TMP    - TEMPERATURE IN FAHRENHEIT
DP     - DEW POINT IN FAHRENHEIT
RH     - RELATIVE HUMIDITY IN PERCENT
WIND   - DIRECTION AND SPEED IN MILES PER HOUR (MPH)
VRB    - VARIABLE WIND DIRECTION
PRES   - MEAN SEA LEVEL PRESSURE IN INCHES OF MERCURY
         F - FALLING PRESSURE   R - RISING PRESSURE
         S - STEADY PRESSURE
VSB    - VISIBILITY IN MILES
HX     - HEAT INDEX IN FAHRENHEIT
WCI    - WIND CHILL INDEX IN FAHRENHEIT
TC     - TEMPERATURE IN CELSIUS WHICH IS ALSO KNOWN AS
         TEMPERATURE IN CENTIGRADE
AFB    - AIR FORCE BASE
         LUKE AFB IS LUKE AIR FORCE BASE
         DAVIS-MONTHAN IS DAVIS-MONTHAN AIR FORCE BASE
NAS    - NAVAL AIR STATION
         EL CENTRO NAS IS EL CENTRO NAVAL AIR STATION
N/A    - NOT AVAILABLE





USA.gov is the U.S. government's official web portal to all federal, state and local government web resources and services.